Weather History for Duesseldorf, Germany

Change the Weather History Date:

Sunday, August 18, 2013

  Actual Average Record
Temperature  
Mean Temperature 68 °F -  
Max Temperature 71 °F 69 °F - ()
Min Temperature 64 °F 52 °F - ()
Cooling Degree Days 3    
Growing Degree Days 18 (Base 50)    
Moisture  
Dew Point 60 °F    
Average Humidity 71    
Maximum Humidity 94    
Minimum Humidity 45    
Precipitation  
Precipitation 0.16 in - - ()
Sea Level Pressure  
Sea Level Pressure 29.89 in    
Wind  
Wind Speed 10 mph ()    
Max Wind Speed 16 mph    
Max Gust Speed 28 mph    
Visibility 7.2 miles    
Events Rain    
T = Trace of Precipitation, MM = Missing Value Source: Averaged Metar Reports

Daily Weather History Graph

Daily Weather History Graph

Search for Another Location

Airport:

Trip Planner

Search our weather history database for the weather conditions in past years. The results will help you decide how hot, cold, wet, or windy it might be!

Date:

Astronomy

Aug. 18, 2013 Rise Set
Actual Time 6:23 AM CEST 8:48 PM CEST
Civil Twilight 5:46 AM CEST 9:25 PM CEST
Nautical Twilight 5:00 AM CEST 10:11 PM CEST
Astronomical Twilight 4:05 AM CEST 11:05 PM CEST
Moon 6:49 PM CEST (8/18) 3:03 AM CEST (8/18)
Length of Visible Light 15h 38m
Length of Day
14h 24m
Waxing Gibbous, 90% of the Moon is Illuminated
Aug 18
Waxing Gibbous
Aug 21
Full
Aug 28
Last Quarter
Sep 5
New
Sep 12
First Quarter

Hourly Weather History & Observations

Time (CEST) Temp. Dew Point Humidity Pressure Visibility Wind Dir Wind Speed Gust Speed Precip Events Conditions
12:00 AM 72 °F 55 °F 45% 29.91 in 28 mi South 8.9 mph - -   Mostly Cloudy
12:20 AM 71.6 °F 57.2 °F 60% 29.89 in - South 9.2 mph - N/A   Clear
12:50 AM 71.6 °F 57.2 °F 60% 29.89 in 6.2 mi SSE 9.2 mph - N/A Rain Light Rain
1:00 AM 72 °F 56 °F 47% 29.90 in 28 mi South 8.9 mph - - Rain Light Rain
1:20 AM 71.6 °F 57.2 °F 60% 29.89 in 6.2 mi South 10.4 mph - N/A Rain Light Rain
1:50 AM 71.6 °F 57.2 °F 60% 29.89 in - South 10.4 mph - N/A   Clear
2:00 AM 71 °F 56 °F 50% 29.88 in 28 mi South 8.9 mph - - Rain Light Rain
2:20 AM 71.6 °F 57.2 °F 60% 29.89 in - South 10.4 mph - N/A   Clear
2:50 AM 71.6 °F 57.2 °F 60% 29.86 in - South 10.4 mph - N/A   Clear
3:00 AM 71 °F 56 °F 50% 29.88 in 28 mi South 11.2 mph - -   Mostly Cloudy
3:20 AM 71.6 °F 57.2 °F 60% 29.86 in - South 10.4 mph - N/A   Clear
3:50 AM 71.6 °F 57.2 °F 60% 29.86 in - South 9.2 mph - N/A   Clear
4:00 AM 71 °F 56 °F 50% 29.88 in 28 mi South 8.9 mph - -   Mostly Cloudy
4:20 AM 71.6 °F 57.2 °F 60% 29.86 in - South 10.4 mph - N/A   Clear
4:50 AM 69.8 °F 57.2 °F 64% 29.86 in - South 10.4 mph - N/A   Clear
5:20 AM 69.8 °F 57.2 °F 64% 29.86 in 6.2 mi South 9.2 mph - N/A   Mostly Cloudy
5:50 AM 69.8 °F 57.2 °F 64% 29.86 in - South 9.2 mph - N/A   Clear
6:20 AM 69.8 °F 57.2 °F 64% 29.86 in - South 10.4 mph - N/A   Clear
6:50 AM 69.8 °F 57.2 °F 64% 29.86 in - South 10.4 mph - N/A   Clear
7:00 AM 70 °F 56 °F 52% 29.86 in 25 mi South 11.2 mph - -   Mostly Cloudy
7:20 AM 71.6 °F 55.4 °F 57% 29.86 in - South 13.8 mph - N/A   Clear
7:50 AM 71.6 °F 55.4 °F 57% 29.86 in 6.2 mi South 10.4 mph - N/A Rain Light Rain
8:00 AM 71 °F 55 °F 48% 29.86 in 25 mi South 11.2 mph - - Rain Light Rain
8:20 AM 71.6 °F 57.2 °F 60% 29.86 in - South 11.5 mph - N/A   Clear
8:50 AM 71.6 °F 55.4 °F 57% 29.86 in - South 11.5 mph - N/A   Clear
9:00 AM 71 °F 56 °F 49% 29.87 in 25 mi South 11.2 mph - - Rain Light Rain
9:20 AM 69.8 °F 59.0 °F 68% 29.86 in 6.2 mi South 11.5 mph - N/A Rain Light Rain
9:50 AM 68.0 °F 59.0 °F 73% 29.86 in 6.2 mi South 11.5 mph - N/A Rain Light Rain
10:00 AM 68 °F 59 °F 66% 29.87 in 16 mi South 11.2 mph - - Rain Light Rain
10:20 AM 69.8 °F 60.8 °F 73% 29.86 in 6.2 mi South 11.5 mph - N/A Rain Light Rain
10:50 AM 71.6 °F 59.0 °F 64% 29.89 in 6.2 mi SSW 12.7 mph - N/A Rain Light Rain
11:20 AM 68.0 °F 60.8 °F 78% 29.89 in 6.2 mi SW 13.8 mph - N/A Rain Light Rain
11:50 AM 68.0 °F 62.6 °F 83% 29.89 in 6.2 mi SW 12.7 mph - N/A Rain Light Rain
12:00 PM 68 °F 62 °F 74% 29.89 in 12 mi SW 13.4 mph - - Rain Light Rain
12:20 PM 69.8 °F 62.6 °F 78% 29.89 in 6.2 mi SW 10.4 mph - N/A   Mostly Cloudy
12:50 PM 68.0 °F 60.8 °F 78% 29.89 in 6.2 mi WSW 9.2 mph - N/A   Mostly Cloudy
1:00 PM 68 °F 60 °F 69% 29.90 in 22 mi WSW 8.9 mph - - Rain Light Rain
1:20 PM 66.2 °F 62.6 °F 88% 29.89 in - SSW 12.7 mph - N/A Rain Rain
1:50 PM 66.2 °F 62.6 °F 88% 29.89 in 6.2 mi WSW 10.4 mph - N/A Rain Rain
2:00 PM 65 °F 62 °F 89% 29.91 in 9 mi WSW 8.9 mph - - Rain Rain
2:20 PM 66.2 °F 62.6 °F 88% 29.92 in 6.2 mi SW 9.2 mph - N/A Rain Light Rain
2:50 PM 66.2 °F 64.4 °F 94% 29.89 in 6.2 mi SSW 8.1 mph - N/A   Mostly Cloudy
3:00 PM 67 °F 63 °F 84% 29.91 in 19 mi SSW 6.7 mph - - Rain Light Rain
3:20 PM 68.0 °F 64.4 °F 88% 29.89 in 6.2 mi SW 12.7 mph - N/A   Mostly Cloudy
3:50 PM 68.0 °F 62.6 °F 83% 29.89 in 6.2 mi SSW 15.0 mph - N/A   Mostly Cloudy
4:00 PM 69 °F 62 °F 72% 29.90 in 12 mi SSW 15.7 mph - - Rain Light Rain
4:20 PM 68.0 °F 62.6 °F 83% 29.89 in - SW 15.0 mph 27.6 mph N/A Rain Rain
4:50 PM 66.2 °F 64.4 °F 94% 29.92 in 6.2 mi SW 15.0 mph - N/A Rain Light Rain
5:20 PM 66.2 °F 64.4 °F 94% 29.92 in 6.2 mi SSW 12.7 mph - N/A   Mostly Cloudy
5:50 PM 68.0 °F 64.4 °F 88% 29.92 in 6.2 mi SSW 12.7 mph - N/A   Mostly Cloudy
6:20 PM 69.8 °F 64.4 °F 83% 29.92 in 6.2 mi SSW 11.5 mph - N/A   Scattered Clouds
6:50 PM 69.8 °F 62.6 °F 78% 29.89 in 6.2 mi SSW 12.7 mph - N/A   Mostly Cloudy
7:00 PM 71 °F 63 °F 68% 29.91 in 25 mi SSW 13.4 mph - -   Mostly Cloudy
7:20 PM 69.8 °F 62.6 °F 78% 29.89 in 6.2 mi SSW 11.5 mph - N/A   Scattered Clouds
7:50 PM 69.8 °F 62.6 °F 78% 29.92 in 6.2 mi SSW 12.7 mph - N/A   Scattered Clouds
8:00 PM 70 °F 62 °F 70% 29.91 in 25 mi SSW 13.4 mph - -   Partly Cloudy
8:20 PM 68.0 °F 62.6 °F 83% 29.92 in 6.2 mi SSW 11.5 mph - N/A   Scattered Clouds
8:50 PM 68.0 °F 62.6 °F 83% 29.92 in 6.2 mi South 10.4 mph - N/A   Scattered Clouds
9:00 PM 68 °F 62 °F 75% 29.91 in 34 mi South 11.2 mph - -   Partly Cloudy
9:20 PM 68.0 °F 62.6 °F 83% 29.92 in 6.2 mi South 10.4 mph - N/A   Mostly Cloudy
9:50 PM 68.0 °F 62.6 °F 83% 29.92 in 6.2 mi South 10.4 mph - N/A Rain Light Rain Showers
10:00 PM 68 °F 62 °F 76% 29.92 in 34 mi South 8.9 mph - - Rain Light Rain Showers
10:20 PM 68.0 °F 62.6 °F 83% 29.92 in 6.2 mi South 8.1 mph - N/A   Mostly Cloudy
10:50 PM 66.2 °F 62.6 °F 88% 29.92 in 6.2 mi South 8.1 mph - N/A   Mostly Cloudy
11:20 PM 66.2 °F 62.6 °F 88% 29.92 in 6.2 mi South 6.9 mph - N/A Rain Light Rain Showers
11:50 PM 64.4 °F 62.6 °F 94% 29.92 in 6.2 mi SSE 4.6 mph - N/A   Scattered Clouds